Location: Newark
(52.3500°N, 175.9667°E)
Time: 22:50:15
(UTC+00:00)

Altair - Pass Details

Date: 24 April 2021
Orbit: 1501 x 1683 km, 47.2° (Epoch: 06 May)

Event Time Altitude Azimuth Distance (km) Brightness Sun altitude
Rises 21:14:54 0° 278° (W) 4,831 9.7 37.0°
Reaches altitude 10° 21:18:07 10° 274° (W) 3,819 9.2 37.4°
Maximum altitude 21:27:25 55° 201° (SSW) 1,828 8.6 38.6°
Drops below altitude 10° 21:36:21 10° 127° (SE) 3,683 10.7 39.8°
Sets 21:39:25 0° 123° (ESE) 4,649 10.9 40.1°
